QPF
0.00 0.00 0.00 0.00 0.03 0.10 0.07 0.01 0.00 0.00 0.00 0.00 0.00 0.00 0.00 0.00 0.00 0.01 0.00 0.00 0.00 0.00 0.00 0.00 0.00 0.00 0.00 0.00 0.00 0.00 0.00 0.00 0.00 0.00 0.00 0.01 0.01 0.00 0.00 0.00 0.00 0.00 0.00 0.01 0.01 0.01 0.01 0.01 0.00
0.00 0.00 0.00 0.00 0.03 0.05 0.01 0.00 0.00 0.00 0.00 0.00 0.00 0.00 0.00 0.00 0.00 0.00 0.00 0.00 0.00 0.00 0.00 0.00 0.00 0.00 0.00 0.00 0.00 0.00 0.00 0.00 0.00 0.00 0.00 0.00 0.00 0.00 0.00 0.00 0.00 0.00 0.01 0.01 0.01 0.01 0.01 0.00 0.00
0.00 0.00 0.00 0.00 0.01 0.00 0.00 0.00 0.00 0.00 0.00 0.00 0.00 0.00 0.00 0.00 0.00 0.00 0.00 0.00 0.00 0.00 0.00 0.00 0.00 0.00 0.00 0.00 0.00 0.00 0.00 0.00 0.00 0.00 0.00 0.00 0.00 0.00 0.00 0.00 0.00 0.00 0.00 0.01 0.01 0.01 0.01 0.00 0.00
0.00 0.00 0.00 0.00 0.00 0.00 0.00 0.00 0.00 0.00 0.00 0.00 0.00 0.00 0.00 0.00 0.00 0.00 0.00 0.00 0.00 0.00 0.00 0.00 0.00 0.00 0.00 0.00 0.00 0.00 0.00 0.00 0.00 0.00 0.00 0.00 0.00 0.00 0.00 0.00 0.00 0.00 0.01 0.01 0.01 0.00 0.00 0.00 0.00
0.00 0.00 0.00 0.00 0.00 0.00 0.00 0.00 0.00 0.00 0.00 0.00 0.00 0.00 0.00 0.00 0.00 0.00 0.00 0.00 0.00 0.00 0.00 0.00 0.00 0.00 0.00 0.00 0.00 0.00 0.00 0.00 0.00 0.00 0.00 0.00 0.00 0.00 0.00 0.01 0.00 0.01 0.01 0.02 0.01 0.01 0.00 0.00 0.00
0.00 0.00 0.00 0.00 0.00 0.00 0.00 0.00 0.00 0.00 0.00 0.00 0.00 0.00 0.00 0.00 0.00 0.00 0.00 0.00 0.00 0.00 0.00 0.00 0.00 0.00 0.00 0.00 0.00 0.00 0.00 0.00 0.00 0.00 0.00 0.00 0.00 0.00 0.01 0.01 0.01 0.01 0.01 0.01 0.01 0.01 0.00 0.00 0.00
0.00 0.00 0.00 0.00 0.00 0.00 0.00 0.00 0.00 0.00 0.00 0.00 0.01 0.01 0.01 0.01 0.00 0.00 0.00 0.00 0.00 0.00 0.00 0.00 0.00 0.00 0.00 0.00 0.00 0.00 0.00 0.00 0.00 0.00 0.00 0.00 0.00 0.00 0.00 0.01 0.01 0.01 0.01 0.01 0.01 0.01 0.00 0.00 0.00
0.00 0.00 0.00 0.00 0.00 0.00 0.00 0.00 0.00 0.00 0.00 0.00 0.01 0.01 0.07 0.04 0.00 0.00 0.00 0.00 0.00 0.00 0.00 0.00 0.00 0.00 0.00 0.00 0.00 0.00 0.00 0.00 0.00 0.00 0.00 0.00 0.00 0.00 0.00 0.00 0.00 0.01 0.01 0.01 0.01 0.01 0.00 0.00 0.00
0.00 0.00 0.00 0.00 0.00 0.00 0.00 0.00 0.00 0.00 0.00 0.00 0.01 0.01 0.02 0.00 0.00 0.00 0.00 0.00 0.00 0.00 0.00 0.00 0.00 0.00 0.00 0.01 0.02 0.02 0.01 0.01 0.01 0.01 0.00 0.00 0.00 0.00 0.00 0.00 0.00 0.00 0.00 0.01 0.01 0.01 0.01 0.01 0.00
0.00 0.00 0.00 0.00 0.00 0.00 0.00 0.00 0.00 0.00 0.00 0.00 0.01 0.00 0.00 0.00 0.00 0.00 0.00 0.00 0.00 0.00 0.00 0.00 0.00 0.00 0.00 0.01 0.05 0.08 0.07 0.09 0.09 0.09 0.09 0.05 0.04 0.02 0.01 0.01 0.03 0.02 0.01 0.01 0.00 0.01 0.02 0.01 0.01
0.00 0.00 0.00 0.00 0.00 0.00 0.00 0.00 0.00 0.00 0.00 0.00 0.00 0.00 0.00 0.00 0.00 0.01 0.01 0.01 0.00 0.00 0.00 0.00 0.00 0.00 0.01 0.01 0.04 0.07 0.07 0.15 0.19 0.23 0.27 0.25 0.18 0.09 0.04 0.04 0.07 0.05 0.04 0.02 0.02 0.02 0.01 0.02 0.03
0.00 0.00 0.00 0.00 0.00 0.00 0.00 0.00 0.00 0.00 0.00 0.00 0.00 0.00 0.00 0.00 0.01 0.01 0.02 0.01 0.01 0.01 0.01 0.00 0.00 0.00 0.01 0.02 0.04 0.03 0.03 0.07 0.10 0.19 0.28 0.31 0.28 0.22 0.17 0.14 0.12 0.12 0.10 0.09 0.08 0.08 0.07 0.07 0.07
0.00 0.00 0.00 0.00 0.00 0.00 0.00 0.00 0.00 0.00 0.00 0.00 0.00 0.00 0.01 0.01 0.01 0.02 0.02 0.03 0.03 0.04 0.03 0.02 0.01 0.01 0.02 0.03 0.04 0.04 0.03 0.04 0.06 0.10 0.17 0.24 0.26 0.25 0.28 0.24 0.21 0.16 0.17 0.21 0.17 0.12 0.15 0.17 0.16
0.00 0.00 0.00 0.00 0.00 0.00 0.00 0.00 0.00 0.00 0.00 0.00 0.00 0.00 0.01 0.01 0.02 0.03 0.04 0.05 0.06 0.06 0.06 0.02 0.01 0.02 0.03 0.03 0.03 0.03 0.03 0.03 0.03 0.05 0.09 0.16 0.20 0.24 0.29 0.29 0.28 0.24 0.22 0.21 0.24 0.21 0.26 0.25 0.23
0.00 0.00 0.00 0.00 0.00 0.00 0.00 0.00 0.00 0.00 0.00 0.00 0.00 0.00 0.01 0.02 0.03 0.03 0.04 0.04 0.04 0.04 0.04 0.02 0.02 0.01 0.02 0.02 0.02 0.02 0.02 0.01 0.02 0.04 0.06 0.10 0.15 0.20 0.25 0.29 0.32 0.32 0.33 0.32 0.29 0.28 0.35 0.30 0.22
0.00 0.00 0.00 0.00 0.00 0.00 0.00 0.02 0.01 0.01 0.00 0.00 0.00 0.00 0.01 0.01 0.02 0.03 0.03 0.03 0.02 0.02 0.02 0.02 0.02 0.02 0.01 0.01 0.01 0.01 0.01 0.02 0.02 0.02 0.04 0.07 0.11 0.16 0.21 0.26 0.33 0.36 0.38 0.39 0.37 0.32 0.33 0.32 0.30
0.00 0.00 0.02 0.05 0.04 0.01 0.01 0.01 0.00 0.00 0.00 0.00 0.00 0.00 0.01 0.01 0.01 0.02 0.01 0.01 0.02 0.03 0.03 0.01 0.01 0.01 0.01 0.01 0.01 0.01 0.02 0.02 0.02 0.03 0.05 0.08 0.13 0.18 0.23 0.27 0.33 0.36 0.38 0.39 0.37 0.39 0.38 0.35 0.33
0.01 0.03 0.07 0.07 0.05 0.04 0.02 0.01 0.01 0.01 0.00 0.00 0.00 0.00 0.00 0.01 0.01 0.01 0.00 0.00 0.01 0.01 0.01 0.01 0.01 0.01 0.00 0.00 0.01 0.01 0.02 0.02 0.02 0.04 0.05 0.06 0.11 0.15 0.19 0.23 0.26 0.28 0.30 0.32 0.33 0.37 0.38 0.34 0.32
0.01 0.02 0.05 0.05 0.03 0.05 0.01 0.00 0.00 0.00 0.00 0.00 0.00 0.00 0.00 0.01 0.00 0.00 0.00 0.00 0.00 0.01 0.01 0.01 0.01 0.00 0.00 0.00 0.00 0.01 0.02 0.02 0.03 0.03 0.04 0.07 0.09 0.10 0.13 0.15 0.20 0.21 0.22 0.26 0.28 0.30 0.32 0.30 0.28
0.00 0.00 0.01 0.04 0.04 0.01 0.01 0.00 0.00 0.00 0.00 0.00 0.00 0.00 0.00 0.00 0.00 0.00 0.00 0.00 0.00 0.00 0.00 0.00 0.00 0.00 0.00 0.00 0.00 0.00 0.01 0.02 0.03 0.04 0.05 0.05 0.06 0.07 0.09 0.13 0.18 0.21 0.21 0.21 0.24 0.25 0.24 0.22 0.22
0.00 0.00 0.02 0.08 0.05 0.01 0.01 0.06 0.04 0.01 0.00 0.00 0.00 0.00 0.00 0.00 0.00 0.00 0.00 0.00 0.00 0.00 0.00 0.00 0.00 0.00 0.00 0.00 0.00 0.00 0.00 0.01 0.01 0.02 0.02 0.03 0.04 0.06 0.09 0.13 0.18 0.21 0.22 0.21 0.22 0.21 0.20 0.16 0.15
0.01 0.01 0.01 0.00 0.01 0.04 0.06 0.21 0.20 0.12 0.06 0.01 0.00 0.00 0.00 0.00 0.00 0.00 0.00 0.00 0.00 0.00 0.00 0.00 0.00 0.00 0.00 0.00 0.00 0.00 0.00 0.00 0.00 0.00 0.00 0.01 0.01 0.02 0.05 0.09 0.15 0.18 0.20 0.20 0.17 0.18 0.21 0.19 0.13
0.01 0.00 0.00 0.00 0.01 0.06 0.23 0.51 0.52 0.32 0.19 0.06 0.01 0.00 0.00 0.00 0.00 0.00 0.00 0.00 0.00 0.00 0.00 0.00 0.00 0.00 0.00 0.00 0.00 0.00 0.00 0.00 0.00 0.00 0.00 0.00 0.00 0.00 0.01 0.02 0.07 0.14 0.20 0.26 0.24 0.23 0.21 0.19 0.14
0.00 0.00 0.01 0.04 0.08 0.18 0.37 0.51 0.46 0.28 0.13 0.05 0.02 0.01 0.00 0.00 0.00 0.00 0.00 0.00 0.00 0.00 0.00 0.00 0.00 0.00 0.00 0.00 0.00 0.00 0.00 0.01 0.00 0.00 0.00 0.00 0.00 0.00 0.00 0.00 0.01 0.04 0.11 0.19 0.25 0.28 0.27 0.23 0.19
0.00 0.00 0.08 0.27 0.32 0.30 0.26 0.28 0.24 0.08 0.02 0.01 0.01 0.01 0.00 0.00 0.00 0.00 0.00 0.00 0.00 0.00 0.00 0.00 0.00 0.00 0.00 0.00 0.00 0.00 0.00 0.00 0.00 0.00 0.00 0.00 0.00 0.00 0.00 0.00 0.00 0.01 0.02 0.05 0.11 0.19 0.27 0.32 0.29
0.00 0.00 0.02 0.06 0.08 0.12 0.13 0.19 0.13 0.01 0.00 0.00 0.00 0.00 0.00 0.00 0.00 0.00 0.00 0.00 0.00 0.00 0.00 0.00 0.00 0.00 0.00 0.00 0.00 0.00 0.00 0.00 0.00 0.00 0.00 0.00 0.00 0.00 0.00 0.00 0.00 0.00 0.00 0.01 0.02 0.05 0.11 0.20 0.28
0.00 0.00 0.00 0.00 0.00 0.02 0.06 0.10 0.06 0.01 0.00 0.00 0.00 0.00 0.00 0.00 0.00 0.00 0.00 0.00 0.00 0.00 0.00 0.00 0.00 0.00 0.00 0.00 0.00 0.00 0.00 0.00 0.00 0.00 0.00 0.00 0.00 0.00 0.00 0.00 0.00 0.00 0.00 0.00 0.01 0.01 0.03 0.07 0.13
0.00 0.00 0.00 0.00 0.00 0.00 0.02 0.08 0.08 0.01 0.00 0.00 0.00 0.00 0.00 0.00 0.00 0.00 0.00 0.00 0.00 0.00 0.00 0.00 0.00 0.00 0.00 0.00 0.00 0.00 0.00 0.00 0.00 0.00 0.00 0.00 0.00 0.00 0.00 0.00 0.00 0.00 0.00 0.01 0.01 0.01 0.01 0.03 0.05
0.00 0.00 0.00 0.00 0.00 0.00 0.00 0.02 0.01 0.00 0.00 0.00 0.00 0.00 0.00 0.00 0.00 0.00 0.00 0.00 0.00 0.00 0.00 0.00 0.00 0.00 0.00 0.00 0.00 0.00 0.00 0.00 0.00 0.00 0.00 0.00 0.00 0.01 0.01 0.01 0.01 0.01 0.01 0.01 0.02 0.01 0.01 0.01 0.02
0.00 0.00 0.00 0.00 0.00 0.00 0.00 0.00 0.00 0.00 0.00 0.00 0.00 0.00 0.00 0.00 0.00 0.00 0.00 0.00 0.00 0.00 0.00 0.00 0.00 0.00 0.00 0.00 0.00 0.00 0.00 0.00 0.00 0.00 0.00 0.00 0.00 0.01 0.01 0.01 0.02 0.01 0.01 0.01 0.03 0.03 0.02 0.02 0.02
MSLP
1008.85 1009.63 1010.37 1010.88 1011.04 1010.78 1010.13 1009.18 1008.09 1007.03 1006.17 1005.61 1005.37 1005.43 1005.69 1006.03 1006.35 1006.59 1006.75 1006.86 1006.99 1007.22 1007.58 1008.09 1008.70 1009.36 1009.96 1010.45 1010.79 1010.99 1011.09 1011.15 1011.26 1011.45 1011.76 1012.16 1012.60 1013.04 1013.43 1013.71 1013.90 1014.02 1014.08 1014.15 1014.23 1014.35 1014.51 1014.67 1014.82
1008.97 1009.72 1010.34 1010.66 1010.61 1010.13 1009.31 1008.24 1007.11 1006.10 1005.34 1004.91 1004.82 1005.00 1005.35 1005.75 1006.10 1006.36 1006.52 1006.65 1006.81 1007.09 1007.51 1008.08 1008.75 1009.45 1010.08 1010.59 1010.94 1011.14 1011.25 1011.32 1011.44 1011.63 1011.93 1012.30 1012.70 1013.08 1013.40 1013.62 1013.76 1013.85 1013.92 1014.01 1014.14 1014.31 1014.51 1014.71 1014.89
1009.11 1009.77 1010.22 1010.32 1010.04 1009.36 1008.39 1007.27 1006.15 1005.22 1004.59 1004.31 1004.35 1004.64 1005.05 1005.48 1005.83 1006.08 1006.25 1006.41 1006.61 1006.95 1007.44 1008.08 1008.81 1009.54 1010.19 1010.71 1011.07 1011.28 1011.40 1011.49 1011.62 1011.82 1012.10 1012.44 1012.78 1013.09 1013.34 1013.49 1013.59 1013.66 1013.75 1013.88 1014.07 1014.31 1014.57 1014.82 1015.01
1009.24 1009.75 1009.99 1009.87 1009.38 1008.55 1007.50 1006.37 1005.33 1004.54 1004.06 1003.92 1004.07 1004.42 1004.85 1005.27 1005.59 1005.82 1005.99 1006.17 1006.43 1006.84 1007.41 1008.12 1008.89 1009.65 1010.31 1010.81 1011.16 1011.36 1011.49 1011.60 1011.75 1011.96 1012.24 1012.55 1012.85 1013.11 1013.28 1013.38 1013.44 1013.51 1013.62 1013.81 1014.07 1014.38 1014.71 1014.99 1015.19
1009.31 1009.63 1009.66 1009.34 1008.68 1007.76 1006.71 1005.66 1004.77 1004.14 1003.83 1003.82 1004.05 1004.42 1004.82 1005.16 1005.42 1005.60 1005.76 1005.97 1006.30 1006.79 1007.44 1008.21 1009.02 1009.77 1010.41 1010.88 1011.18 1011.37 1011.48 1011.60 1011.78 1012.01 1012.31 1012.62 1012.90 1013.11 1013.24 1013.30 1013.35 1013.42 1013.56 1013.80 1014.12 1014.50 1014.88 1015.19 1015.40
1009.29 1009.41 1009.23 1008.75 1008.00 1007.08 1006.11 1005.22 1004.52 1004.09 1003.95 1004.05 1004.32 1004.65 1004.96 1005.20 1005.36 1005.47 1005.61 1005.84 1006.24 1006.81 1007.54 1008.36 1009.18 1009.91 1010.49 1010.90 1011.14 1011.27 1011.36 1011.49 1011.68 1011.95 1012.27 1012.60 1012.88 1013.08 1013.19 1013.24 1013.27 1013.35 1013.52 1013.80 1014.18 1014.61 1015.02 1015.34 1015.54
1009.14 1009.07 1008.73 1008.15 1007.38 1006.54 1005.73 1005.06 1004.60 1004.40 1004.42 1004.60 1004.86 1005.12 1005.31 1005.40 1005.44 1005.47 1005.57 1005.83 1006.28 1006.92 1007.71 1008.56 1009.37 1010.06 1010.56 1010.87 1011.02 1011.08 1011.14 1011.25 1011.46 1011.77 1012.13 1012.49 1012.79 1013.00 1013.10 1013.14 1013.16 1013.24 1013.42 1013.72 1014.13 1014.58 1015.01 1015.34 1015.52
1008.88 1008.65 1008.19 1007.58 1006.87 1006.17 1005.58 1005.17 1004.97 1004.98 1005.15 1005.39 1005.63 1005.78 1005.83 1005.78 1005.68 1005.62 1005.70 1005.96 1006.46 1007.15 1007.97 1008.83 1009.60 1010.21 1010.62 1010.82 1010.87 1010.85 1010.85 1010.95 1011.17 1011.50 1011.90 1012.29 1012.61 1012.83 1012.93 1012.96 1012.96 1013.02 1013.19 1013.48 1013.89 1014.34 1014.77 1015.11 1015.28
1008.53 1008.18 1007.67 1007.08 1006.49 1005.98 1005.64 1005.50 1005.55 1005.77 1006.06 1006.35 1006.55 1006.61 1006.52 1006.33 1006.12 1005.99 1006.02 1006.29 1006.80 1007.50 1008.33 1009.16 1009.87 1010.39 1010.68 1010.77 1010.72 1010.62 1010.57 1010.64 1010.86 1011.20 1011.62 1012.03 1012.36 1012.57 1012.66 1012.66 1012.63 1012.65 1012.77 1013.03 1013.40 1013.84 1014.27 1014.61 1014.79
1008.14 1007.73 1007.22 1006.71 1006.26 1005.97 1005.88 1005.99 1006.28 1006.67 1007.07 1007.38 1007.55 1007.53 1007.35 1007.06 1006.76 1006.57 1006.58 1006.83 1007.32 1008.01 1008.79 1009.56 1010.18 1010.60 1010.78 1010.76 1010.62 1010.45 1010.35 1010.39 1010.59 1010.93 1011.34 1011.74 1012.06 1012.25 1012.30 1012.24 1012.15 1012.11 1012.17 1012.37 1012.69 1013.10 1013.52 1013.87 1014.09
1007.77 1007.36 1006.91 1006.50 1006.22 1006.14 1006.26 1006.59 1007.06 1007.58 1008.06 1008.41 1008.56 1008.51 1008.27 1007.94 1007.61 1007.39 1007.36 1007.58 1008.04 1008.66 1009.36 1010.02 1010.54 1010.84 1010.93 1010.82 1010.61 1010.39 1010.25 1010.26 1010.43 1010.74 1011.11 1011.47 1011.74 1011.87 1011.86 1011.74 1011.58 1011.46 1011.44 1011.56 1011.83 1012.20 1012.61 1012.98 1013.26
1007.51 1007.15 1006.79 1006.51 1006.38 1006.47 1006.76 1007.24 1007.83 1008.45 1008.98 1009.35 1009.52 1009.47 1009.25 1008.92 1008.60 1008.39 1008.35 1008.52 1008.90 1009.43 1010.00 1010.53 1010.93 1011.12 1011.12 1010.96 1010.71 1010.46 1010.30 1010.27 1010.40 1010.65 1010.96 1011.24 1011.43 1011.49 1011.40 1011.21 1010.97 1010.77 1010.67 1010.73 1010.93 1011.26 1011.67 1012.07 1012.40
1007.41 1007.14 1006.88 1006.73 1006.74 1006.95 1007.36 1007.92 1008.57 1009.22 1009.77 1010.16 1010.36 1010.36 1010.19 1009.94 1009.67 1009.49 1009.45 1009.57 1009.85 1010.25 1010.68 1011.06 1011.32 1011.42 1011.35 1011.16 1010.90 1010.65 1010.48 1010.42 1010.49 1010.66 1010.87 1011.05 1011.15 1011.11 1010.95 1010.69 1010.40 1010.14 1009.98 1009.97 1010.13 1010.42 1010.82 1011.24 1011.63
1007.51 1007.35 1007.21 1007.18 1007.29 1007.58 1008.03 1008.60 1009.24 1009.86 1010.39 1010.79 1011.03 1011.10 1011.03 1010.88 1010.71 1010.59 1010.55 1010.62 1010.80 1011.04 1011.31 1011.54 1011.68 1011.70 1011.60 1011.41 1011.17 1010.93 1010.75 1010.66 1010.67 1010.73 1010.83 1010.89 1010.88 1010.76 1010.54 1010.24 1009.91 1009.63 1009.45 1009.41 1009.53 1009.80 1010.18 1010.61 1011.03
1007.80 1007.75 1007.73 1007.80 1007.99 1008.32 1008.76 1009.28 1009.84 1010.38 1010.85 1011.23 1011.49 1011.63 1011.68 1011.66 1011.60 1011.55 1011.53 1011.56 1011.63 1011.74 1011.85 1011.94 1011.97 1011.93 1011.82 1011.66 1011.45 1011.25 1011.07 1010.94 1010.86 1010.82 1010.78 1010.72 1010.60 1010.41 1010.16 1009.85 1009.55 1009.29 1009.12 1009.08 1009.19 1009.43 1009.79 1010.20 1010.62
1008.21 1008.28 1008.38 1008.55 1008.80 1009.14 1009.53 1009.96 1010.39 1010.80 1011.17 1011.48 1011.74 1011.94 1012.09 1012.19 1012.26 1012.29 1012.30 1012.29 1012.28 1012.27 1012.25 1012.22 1012.18 1012.11 1012.01 1011.89 1011.73 1011.56 1011.39 1011.21 1011.04 1010.87 1010.69 1010.51 1010.30 1010.06 1009.80 1009.54 1009.30 1009.10 1008.99 1008.99 1009.10 1009.32 1009.63 1010.00 1010.38
1008.68 1008.86 1009.08 1009.36 1009.68 1010.01 1010.35 1010.66 1010.93 1011.17 1011.39 1011.60 1011.81 1012.03 1012.25 1012.45 1012.62 1012.73 1012.78 1012.77 1012.70 1012.60 1012.49 1012.38 1012.30 1012.22 1012.16 1012.08 1011.98 1011.85 1011.66 1011.43 1011.15 1010.86 1010.55 1010.24 1009.95 1009.69 1009.46 1009.27 1009.13 1009.04 1009.02 1009.07 1009.20 1009.40 1009.67 1009.96 1010.26
1009.11 1009.41 1009.78 1010.17 1010.57 1010.93 1011.21 1011.40 1011.50 1011.54 1011.57 1011.63 1011.75 1011.94 1012.18 1012.45 1012.70 1012.88 1012.98 1012.98 1012.89 1012.75 1012.59 1012.44 1012.34 1012.29 1012.26 1012.25 1012.20 1012.08 1011.88 1011.59 1011.21 1010.79 1010.35 1009.94 1009.59 1009.32 1009.14 1009.04 1009.02 1009.05 1009.14 1009.26 1009.41 1009.60 1009.80 1010.00 1010.21
1009.42 1009.87 1010.39 1010.94 1011.45 1011.86 1012.11 1012.19 1012.13 1011.96 1011.78 1011.65 1011.63 1011.73 1011.95 1012.23 1012.53 1012.78 1012.93 1012.96 1012.89 1012.74 1012.57 1012.43 1012.34 1012.32 1012.34 1012.38 1012.37 1012.27 1012.05 1011.70 1011.23 1010.70 1010.15 1009.66 1009.26 1008.98 1008.85 1008.85 1008.94 1009.10 1009.28 1009.47 1009.65 1009.80 1009.94 1010.05 1010.14
1009.58 1010.18 1010.88 1011.62 1012.28 1012.77 1013.03 1013.04 1012.83 1012.46 1012.06 1011.72 1011.51 1011.48 1011.62 1011.89 1012.21 1012.51 1012.71 1012.79 1012.76 1012.64 1012.49 1012.37 1012.31 1012.33 1012.40 1012.48 1012.51 1012.43 1012.20 1011.80 1011.26 1010.63 1010.00 1009.43 1008.99 1008.72 1008.63 1008.70 1008.89 1009.14 1009.40 1009.64 1009.83 1009.96 1010.03 1010.05 1010.04
1009.56 1010.32 1011.24 1012.19 1013.03 1013.64 1013.94 1013.91 1013.58 1013.03 1012.41 1011.85 1011.45 1011.26 1011.29 1011.51 1011.82 1012.15 1012.40 1012.54 1012.56 1012.49 1012.38 1012.30 1012.27 1012.33 1012.44 1012.56 1012.62 1012.55 1012.32 1011.89 1011.31 1010.64 1009.95 1009.33 1008.86 1008.58 1008.51 1008.62 1008.85 1009.16 1009.46 1009.72 1009.90 1010.00 1010.01 1009.97 1009.88
1009.39 1010.33 1011.45 1012.61 1013.65 1014.40 1014.77 1014.73 1014.31 1013.61 1012.81 1012.04 1011.44 1011.09 1011.00 1011.15 1011.44 1011.78 1012.07 1012.27 1012.35 1012.33 1012.27 1012.22 1012.22 1012.31 1012.45 1012.59 1012.67 1012.63 1012.41 1012.00 1011.41 1010.73 1010.02 1009.38 1008.89 1008.59 1008.51 1008.61 1008.85 1009.15 1009.45 1009.70 1009.86 1009.91 1009.88 1009.79 1009.66
1009.13 1010.22 1011.53 1012.89 1014.09 1014.98 1015.43 1015.39 1014.92 1014.12 1013.16 1012.23 1011.46 1010.97 1010.77 1010.84 1011.11 1011.45 1011.78 1012.03 1012.16 1012.19 1012.16 1012.13 1012.15 1012.24 1012.39 1012.55 1012.66 1012.65 1012.47 1012.09 1011.55 1010.89 1010.20 1009.56 1009.06 1008.74 1008.62 1008.68 1008.87 1009.12 1009.38 1009.58 1009.69 1009.71 1009.65 1009.53 1009.39
1008.86 1010.06 1011.50 1012.99 1014.32 1015.31 1015.82 1015.81 1015.31 1014.45 1013.39 1012.35 1011.47 1010.87 1010.59 1010.61 1010.85 1011.20 1011.56 1011.84 1012.01 1012.07 1012.06 1012.03 1012.05 1012.13 1012.26 1012.43 1012.55 1012.58 1012.45 1012.15 1011.67 1011.08 1010.43 1009.82 1009.32 1008.97 1008.80 1008.79 1008.90 1009.07 1009.24 1009.37 1009.43 1009.41 1009.34 1009.22 1009.10
1008.63 1009.88 1011.37 1012.92 1014.31 1015.35 1015.89 1015.90 1015.40 1014.51 1013.42 1012.33 1011.40 1010.75 1010.43 1010.43 1010.66 1011.02 1011.40 1011.71 1011.90 1011.97 1011.96 1011.92 1011.91 1011.95 1012.06 1012.21 1012.35 1012.41 1012.35 1012.12 1011.74 1011.23 1010.66 1010.10 1009.61 1009.24 1009.01 1008.91 1008.92 1008.99 1009.06 1009.11 1009.11 1009.06 1008.97 1008.88 1008.80
1008.51 1009.72 1011.18 1012.69 1014.05 1015.07 1015.61 1015.62 1015.14 1014.27 1013.21 1012.14 1011.23 1010.60 1010.30 1010.30 1010.55 1010.92 1011.31 1011.63 1011.83 1011.90 1011.88 1011.80 1011.74 1011.74 1011.81 1011.93 1012.06 1012.15 1012.14 1012.00 1011.71 1011.30 1010.81 1010.31 1009.84 1009.45 1009.17 1009.00 1008.91 1008.87 1008.84 1008.81 1008.75 1008.68 1008.60 1008.53 1008.50
1008.52 1009.62 1010.95 1012.34 1013.58 1014.51 1015.00 1015.00 1014.55 1013.76 1012.78 1011.81 1010.98 1010.43 1010.18 1010.23 1010.50 1010.90 1011.30 1011.62 1011.82 1011.87 1011.81 1011.70 1011.58 1011.52 1011.54 1011.62 1011.73 1011.82 1011.85 1011.77 1011.56 1011.24 1010.84 1010.39 1009.96 1009.57 1009.25 1009.01 1008.84 1008.71 1008.61 1008.50 1008.40 1008.31 1008.23 1008.20 1008.21
1008.68 1009.61 1010.73 1011.91 1012.97 1013.75 1014.16 1014.14 1013.74 1013.04 1012.20 1011.37 1010.69 1010.26 1010.11 1010.23 1010.54 1010.95 1011.36 1011.67 1011.84 1011.87 1011.78 1011.62 1011.45 1011.33 1011.29 1011.31 1011.39 1011.47 1011.50 1011.46 1011.30 1011.05 1010.71 1010.32 1009.92 1009.54 1009.21 1008.93 1008.71 1008.52 1008.36 1008.21 1008.08 1007.97 1007.90 1007.88 1007.92
1008.98 1009.69 1010.56 1011.48 1012.30 1012.91 1013.21 1013.18 1012.83 1012.26 1011.59 1010.94 1010.44 1010.16 1010.13 1010.31 1010.67 1011.08 1011.47 1011.76 1011.91 1011.90 1011.78 1011.58 1011.37 1011.20 1011.10 1011.06 1011.09 1011.13 1011.14 1011.09 1010.96 1010.74 1010.44 1010.09 1009.72 1009.37 1009.04 1008.76 1008.52 1008.30 1008.12 1007.94 1007.79 1007.67 1007.59 1007.57 1007.62
1009.39 1009.86 1010.47 1011.11 1011.69 1012.10 1012.30 1012.25 1011.97 1011.54 1011.05 1010.61 1010.30 1010.17 1010.25 1010.50 1010.86 1011.27 1011.62 1011.87 1011.97 1011.93 1011.78 1011.56 1011.32 1011.11 1010.96 1010.88 1010.84 1010.83 1010.80 1010.72 1010.57 1010.35 1010.06 1009.74 1009.40 1009.07 1008.77 1008.50 1008.27 1008.06 1007.86 1007.69 1007.52 1007.39 1007.29 1007.25 1007.29
Thickness
5845 5845 5844 5839 5823 5812 5818 5850 5868 5868 5872 5884 5887 5882 5867 5857 5847 5834 5869 5879 5870 5856 5845 5838 5833 5830 5826 5822 5818 5815 5812 5809 5806 5803 5800 5796 5794 5791 5788 5785 5783 5780 5778 5776 5774 5772 5769 5767 5764
5851 5852 5845 5838 5820 5807 5825 5858 5863 5870 5880 5890 5889 5882 5869 5861 5869 5866 5869 5873 5866 5854 5845 5838 5831 5828 5824 5820 5817 5813 5811 5808 5805 5802 5799 5796 5792 5790 5787 5784 5781 5779 5777 5775 5773 5771 5769 5766 5764
5854 5857 5843 5838 5833 5830 5840 5862 5869 5882 5888 5888 5880 5877 5865 5858 5867 5867 5871 5874 5865 5854 5845 5836 5830 5826 5822 5818 5815 5812 5809 5806 5803 5800 5797 5794 5791 5788 5785 5783 5780 5778 5775 5773 5771 5769 5767 5765 5764
5851 5850 5844 5836 5837 5858 5864 5869 5877 5879 5878 5884 5879 5862 5861 5870 5872 5871 5875 5874 5861 5851 5842 5832 5828 5824 5819 5816 5813 5809 5806 5803 5800 5798 5795 5792 5789 5786 5783 5781 5778 5775 5773 5771 5770 5768 5765 5764 5762
5851 5843 5835 5836 5853 5869 5878 5880 5883 5876 5873 5877 5873 5852 5849 5867 5875 5874 5874 5869 5858 5850 5840 5830 5824 5820 5816 5813 5810 5806 5803 5800 5797 5794 5791 5789 5786 5783 5780 5778 5776 5774 5771 5769 5768 5766 5764 5762 5760
5839 5844 5829 5835 5859 5872 5880 5884 5884 5874 5873 5873 5866 5849 5845 5865 5867 5869 5871 5867 5862 5849 5837 5826 5820 5816 5813 5809 5806 5802 5799 5796 5793 5790 5787 5784 5782 5779 5777 5774 5772 5770 5769 5767 5765 5764 5762 5760 5758
5830 5831 5827 5839 5856 5867 5872 5882 5875 5868 5862 5863 5864 5843 5843 5854 5864 5868 5867 5865 5859 5848 5833 5823 5817 5812 5808 5805 5802 5799 5796 5792 5789 5786 5783 5780 5777 5775 5773 5770 5768 5766 5765 5763 5762 5760 5759 5758 5756
5844 5831 5826 5840 5852 5863 5875 5876 5874 5865 5857 5868 5866 5839 5827 5842 5861 5864 5861 5858 5851 5842 5833 5824 5818 5812 5807 5803 5799 5796 5792 5789 5785 5782 5779 5776 5773 5771 5769 5767 5765 5763 5761 5759 5758 5757 5756 5755 5754
5843 5818 5816 5837 5850 5858 5869 5862 5865 5871 5859 5853 5852 5848 5846 5855 5858 5852 5847 5844 5838 5833 5830 5826 5821 5813 5809 5804 5799 5792 5788 5784 5780 5777 5774 5771 5769 5768 5766 5765 5763 5760 5758 5756 5754 5753 5752 5752 5751
5832 5811 5825 5852 5856 5854 5856 5852 5853 5852 5838 5831 5833 5844 5852 5850 5845 5838 5832 5827 5824 5821 5821 5820 5815 5810 5807 5805 5798 5791 5787 5784 5778 5776 5772 5768 5765 5765 5766 5764 5761 5758 5755 5753 5751 5749 5749 5748 5750
5831 5820 5835 5849 5856 5853 5847 5845 5847 5836 5814 5814 5818 5826 5836 5835 5830 5825 5821 5819 5817 5814 5811 5809 5806 5802 5798 5795 5792 5789 5787 5784 5779 5775 5771 5767 5764 5761 5761 5762 5759 5755 5751 5749 5749 5746 5746 5747 5749
5828 5831 5839 5843 5850 5844 5839 5838 5825 5815 5806 5815 5819 5821 5821 5815 5810 5809 5807 5806 5804 5801 5798 5797 5796 5793 5789 5786 5784 5783 5782 5778 5775 5771 5767 5763 5760 5758 5756 5755 5754 5752 5749 5747 5747 5746 5745 5746 5749
5827 5829 5838 5843 5843 5839 5834 5823 5813 5801 5805 5808 5807 5804 5800 5800 5798 5797 5797 5794 5791 5787 5786 5786 5785 5782 5779 5776 5774 5773 5771 5770 5769 5765 5762 5758 5755 5753 5752 5751 5750 5748 5745 5744 5742 5743 5744 5744 5746
5828 5833 5835 5837 5835 5832 5821 5812 5803 5791 5795 5791 5788 5785 5785 5784 5783 5782 5781 5779 5777 5775 5775 5776 5775 5773 5770 5767 5765 5764 5764 5763 5761 5759 5755 5752 5750 5748 5747 5746 5744 5744 5742 5740 5739 5737 5738 5739 5741
5830 5820 5822 5826 5825 5821 5813 5789 5784 5786 5786 5778 5775 5773 5773 5773 5772 5770 5769 5768 5767 5766 5766 5765 5766 5764 5760 5758 5757 5757 5756 5755 5753 5751 5748 5745 5744 5743 5741 5740 5739 5739 5737 5735 5734 5733 5732 5732 5735
5820 5808 5799 5806 5811 5814 5804 5766 5776 5781 5776 5768 5767 5766 5763 5763 5764 5763 5763 5761 5760 5758 5757 5756 5756 5753 5751 5750 5748 5748 5748 5746 5744 5743 5740 5738 5737 5735 5735 5734 5734 5733 5731 5729 5727 5727 5726 5726 5728
5802 5782 5774 5776 5791 5793 5793 5768 5773 5780 5772 5763 5761 5759 5757 5755 5756 5757 5757 5755 5753 5751 5749 5747 5746 5743 5741 5741 5740 5740 5739 5738 5737 5736 5733 5731 5729 5729 5728 5729 5728 5726 5725 5722 5721 5721 5721 5720 5722
5767 5758 5749 5750 5777 5786 5783 5772 5772 5774 5770 5761 5757 5754 5751 5749 5749 5752 5752 5751 5748 5746 5743 5740 5738 5735 5733 5732 5731 5730 5730 5730 5729 5729 5727 5725 5723 5722 5722 5722 5722 5720 5718 5716 5714 5714 5716 5716 5717
5787 5773 5755 5759 5785 5787 5780 5772 5771 5772 5766 5757 5752 5749 5747 5746 5748 5749 5748 5747 5744 5740 5737 5734 5730 5728 5724 5721 5718 5718 5719 5720 5720 5721 5721 5719 5717 5716 5715 5715 5715 5713 5711 5710 5709 5709 5709 5710 5712
5802 5790 5775 5775 5787 5783 5776 5772 5772 5770 5764 5757 5752 5748 5745 5743 5743 5743 5743 5742 5738 5734 5730 5728 5723 5719 5716 5712 5710 5712 5712 5712 5713 5714 5712 5711 5710 5709 5708 5707 5707 5706 5705 5704 5703 5702 5702 5703 5706
5798 5784 5780 5775 5778 5780 5770 5757 5757 5761 5760 5757 5754 5752 5748 5743 5739 5737 5736 5734 5732 5727 5723 5720 5715 5711 5706 5703 5702 5701 5700 5701 5701 5701 5701 5702 5701 5700 5700 5700 5700 5699 5699 5698 5697 5697 5695 5695 5698
5776 5787 5788 5779 5765 5753 5742 5715 5727 5737 5740 5746 5747 5745 5743 5741 5738 5734 5731 5728 5724 5720 5717 5712 5707 5703 5698 5693 5689 5685 5683 5684 5685 5687 5689 5690 5690 5691 5692 5692 5692 5691 5691 5691 5692 5693 5692 5690 5689
5789 5798 5784 5765 5748 5725 5700 5681 5694 5717 5721 5733 5740 5741 5741 5739 5735 5731 5727 5724 5720 5715 5710 5705 5701 5696 5691 5685 5680 5676 5673 5672 5673 5674 5675 5678 5680 5682 5684 5684 5683 5683 5683 5684 5685 5686 5686 5685 5684
5809 5797 5775 5751 5729 5698 5696 5682 5689 5711 5726 5735 5738 5739 5737 5736 5733 5729 5726 5722 5715 5710 5704 5699 5693 5688 5683 5678 5673 5668 5664 5662 5661 5662 5664 5668 5671 5673 5674 5674 5674 5674 5674 5675 5676 5678 5679 5679 5679
5797 5775 5742 5710 5692 5693 5711 5695 5706 5737 5746 5743 5738 5737 5737 5735 5731 5726 5721 5715 5709 5703 5698 5692 5685 5679 5675 5670 5665 5661 5657 5655 5654 5655 5657 5656 5658 5660 5662 5663 5663 5663 5664 5665 5667 5669 5671 5672 5673
5789 5782 5750 5729 5727 5723 5715 5703 5724 5750 5752 5750 5747 5743 5738 5734 5730 5723 5717 5710 5703 5697 5691 5684 5678 5672 5668 5663 5659 5655 5652 5650 5649 5647 5646 5646 5647 5650 5653 5654 5653 5654 5655 5656 5657 5658 5660 5663 5665
5785 5782 5789 5770 5764 5748 5729 5727 5732 5750 5748 5747 5745 5741 5737 5732 5726 5719 5712 5705 5698 5690 5684 5678 5672 5667 5662 5657 5653 5649 5647 5642 5640 5638 5638 5640 5640 5641 5643 5642 5642 5643 5644 5645 5646 5647 5649 5652 5654
5794 5788 5776 5759 5743 5737 5744 5727 5722 5734 5740 5742 5740 5737 5733 5727 5720 5713 5705 5699 5692 5686 5680 5674 5668 5662 5656 5652 5647 5643 5638 5635 5633 5631 5630 5629 5630 5630 5630 5631 5631 5631 5632 5633 5634 5635 5638 5640 5643
5780 5776 5768 5763 5756 5734 5731 5725 5746 5741 5741 5738 5737 5734 5727 5719 5712 5705 5699 5692 5686 5680 5673 5667 5661 5655 5650 5644 5639 5634 5630 5627 5625 5623 5622 5621 5620 5619 5618 5617 5617 5617 5618 5619 5620 5621 5624 5627 5631
5785 5773 5765 5743 5738 5747 5743 5728 5756 5751 5748 5741 5735 5729 5722 5714 5706 5700 5693 5685 5678 5671 5665 5659 5653 5647 5642 5637 5631 5626 5623 5619 5616 5615 5612 5611 5609 5607 5606 5605 5604 5603 5603 5603 5604 5605 5608 5612 5617